Flag for Russia Weather past 2 weeks in Murmansk, Russia

Now
46 °F

Passing clouds.


Feels Like: 46 °F
Forecast: 42 / 59 °F
Wind: 1 mph from North

Location: Murmansk Airport

Current Time: Aug 31, 2014 at 12:33:21 AM

Latest Report: Aug 31, 2014 at 12:00 AM


Visibility: N/A

Pressure: 30.18 "Hg

Humidity: 87%

Dew point: 43 °F

Location of MurmanskLocation

Historic Weather in Murmansk — Graph

°F

Murmansk temperature yesterday

Maximum temperature yesterday: 52 °F (at 5:00 PM)
Minimum temperature yesterday: 41 °F (at 4:00 AM)
Average temperature yesterday: 46 °F

Past Weeks' High & Low Weather Summary

 TemperatureHumidityPressure
High61 °F (Aug 25, 7:30 PM)100% (Aug 19, 2:30 AM)30.18 "Hg (Aug 19, 2:30 AM)
Low28 °F (Aug 24, 5:30 AM)50% (Aug 18, 4:00 PM)29.27 "Hg (Aug 20, 8:00 AM)
Average49 °F83%29.75 "Hg
* Reported Aug 15 11:00 PM — Aug 30 11:00 PM, Murmansk, Weather by CustomWeather, © 2014

Note: Actual official high and low records may vary slightly from our data, if they occured in-between our weather recording intervals... More about our weather records

Advertising

Murmansk weather history for previous 24 hours

 ConditionsComfort  
Time TempWeatherWind HumidityBarometerVisibility
11:00 PM
Aug 30
46 °FPassing clouds.No wind93%30.18 "HgN/A
10:30 PM46 °FPartly sunny.1 mph93%30.15 "HgN/A
10:00 PM46 °FSprinkles. Fog.3 mph93%30.15 "Hg3 mi
9:00 PM48 °FSprinkles. Partly sunny.6 mph87%30.15 "Hg4 mi
8:30 PM50 °FPartly sunny.No wind88%30.15 "HgN/A
8:00 PM50 °FSprinkles. Partly sunny.1 mph88%30.15 "Hg5 mi
7:30 PM50 °FSprinkles. Partly sunny.3 mph82%30.15 "HgN/A
7:00 PM52 °FSprinkles. Partly sunny.6 mph77%30.12 "Hg4 mi
6:30 PM52 °FPartly sunny.3 mph72%30.12 "HgN/A
6:00 PM52 °FPartly sunny.No wind72%30.12 "HgN/A
5:30 PM52 °FPartly sunny.1 mph67%30.12 "HgN/A
5:00 PM52 °FPartly sunny.3 mph67%30.12 "HgN/A
4:00 PM50 °FPartly sunny.3 mph71%30.12 "HgN/A
3:30 PM50 °FPartly sunny.3 mph71%30.12 "HgN/A
3:00 PM50 °FPartly sunny.1 mph67%30.12 "HgN/A
2:30 PM48 °FPartly sunny.3 mph71%30.12 "HgN/A
2:00 PM48 °FPartly sunny.1 mph71%30.12 "HgN/A
1:30 PM48 °FPartly sunny.1 mph71%30.09 "HgN/A
1:00 PM46 °FPartly sunny.3 mph76%30.09 "HgN/A
12:30 PM46 °FPartly sunny.3 mph76%30.09 "HgN/A
12:00 PM46 °FPartly sunny.1 mph76%30.09 "HgN/A
11:30 AM46 °FPartly sunny.3 mph76%30.09 "HgN/A
11:00 AM46 °FPartly sunny.3 mph76%30.09 "HgN/A
10:30 AM45 °FPartly sunny.1 mph81%30.07 "HgN/A
10:00 AM45 °FPartly sunny.No wind81%30.07 "HgN/A
9:30 AM45 °FPartly sunny.No wind81%30.07 "HgN/A
9:00 AM43 °FPartly sunny.No wind87%30.07 "HgN/A
8:30 AM43 °FPartly sunny.1 mph87%30.07 "HgN/A
8:00 AM43 °FPartly sunny.No wind87%30.07 "HgN/A
7:30 AM43 °FPartly sunny.1 mph81%30.07 "HgN/A
7:00 AM43 °FPartly sunny.1 mph81%30.07 "HgN/A
6:30 AM43 °FPassing clouds.No wind81%30.07 "HgN/A
6:00 AM43 °FPassing clouds.1 mph81%30.07 "HgN/A
5:30 AM43 °FPassing clouds.3 mph81%30.07 "HgN/A
5:00 AM43 °FPassing clouds.3 mph81%30.07 "HgN/A
4:30 AM41 °FPassing clouds.No wind81%30.04 "HgN/A
4:00 AM41 °FPassing clouds.1 mph81%30.04 "HgN/A
3:30 AM43 °FPassing clouds.No wind76%30.04 "HgN/A
3:00 AM43 °FPassing clouds.3 mph76%30.07 "HgN/A
2:30 AM43 °FPassing clouds.3 mph76%30.07 "HgN/A
2:00 AM43 °FPassing clouds.3 mph71%30.07 "HgN/A
1:30 AM43 °FPassing clouds.3 mph71%30.07 "HgN/A
1:00 AM45 °FPassing clouds.3 mph71%30.07 "HgN/A
Weather by CustomWeather, © 2014

See weather overviewHow to use our weather pages